Overview Statistics Trail Chart Weather Telemetry Raw packets
 

This is the latest recevied weather packets stored in our database for station/object 4S6DRJ-13. If no packets are shown the sender has not sent any weather packets the latest 10 day(s).

<< 470 471 472 473 474 475 476 >>
Time Temp. Humidity Pressure Rain* Wind** Luminosity Snow
1787737631 29.44° C 76% 1008.2 hPa 0 mm 2.24 m/s, 266° 366 W/m² -
1787737569 30° C 75% 1008.2 hPa 0 mm 4.02 m/s, 185° 372 W/m² -
1787737509 30° C 75% 1008.5 hPa 0 mm 2.68 m/s, 241° 363 W/m² -
1787737448 30° C 76% 1008.5 hPa 0 mm 0.89 m/s, 238° 378 W/m² -
1787737386 30° C 76% 1008.3 hPa 0 mm 1.79 m/s, 142° 363 W/m² -
1787737326 30° C 76% 1008.3 hPa 0 mm 0.89 m/s, 234° 413 W/m² -
1787737264 30° C 76% 1008.3 hPa 0 mm 0.89 m/s, 208° 418 W/m² -
1787737204 30° C 75% 1008.2 hPa 0 mm 2.68 m/s, 209° 380 W/m² -
1787737143 30° C 75% 1008.2 hPa 0 mm 1.34 m/s, 235° 373 W/m² -
1787737081 30° C 75% 1008.2 hPa 0 mm 1.79 m/s, 268° 479 W/m² -
1787737021 29.44° C 76% 1008.2 hPa 0 mm 1.34 m/s, 281° 480 W/m² -
1787736960 29.44° C 76% 1008.5 hPa 0 mm 0.89 m/s, 195° 473 W/m² -
1787736898 29.44° C 76% 1008.3 hPa 0 mm 2.24 m/s, 35° 473 W/m² -
1787736837 29.44° C 76% 1008.4 hPa 0 mm 1.34 m/s, 239° 469 W/m² -
1787736777 29.44° C 76% 1008.3 hPa 0 mm 0.89 m/s, 32° 460 W/m² -
1787736716 29.44° C 76% 1008.4 hPa 0 mm 2.68 m/s, 290° 386 W/m² -
1787736655 29.44° C 76% 1008.5 hPa 0 mm 2.68 m/s, 310° 394 W/m² -
1787736594 29.44° C 75% 1008.5 hPa 0 mm 2.68 m/s, 227° 345 W/m² -
1787736533 29.44° C 76% 1008.5 hPa 0 mm 1.34 m/s, 238° 364 W/m² -
1787736472 29.44° C 76% 1008.3 hPa 0 mm 0.89 m/s, 223° 388 W/m² -
1787736411 30° C 75% 1008.4 hPa 0 mm 2.68 m/s, 250° 446 W/m² -
1787736350 29.44° C 75% 1008.4 hPa 0 mm 2.68 m/s, 203° 444 W/m² -
1787736289 29.44° C 76% 1008.5 hPa 0 mm 2.68 m/s, 289° 434 W/m² -
1787736228 29.44° C 76% 1008.4 hPa 0 mm 0.45 m/s, 296° 370 W/m² -
1787736167 29.44° C 76% 1008.4 hPa 0 mm 1.34 m/s, 232° 443 W/m² -

* Rain latest hour (hover to see other rain measurements)
** Current wind speed in m/s (hover to see current wind gust speed)